Location: Vigo di Fassa
(46.4167°N, 11.6667°E)
Time: 14:35:42
(UTC+00:00)

Cosmos 1844 - Pass Details

Date: 03 March 2021
Orbit: 822 x 868 km, 70.9° (Epoch: 16 April)

Event Time Altitude Azimuth Distance (km) Brightness Sun altitude
Rises 18:34:08 0° 333° (NNW) 3,459 7.4 -16.6°
Reaches altitude 10° 18:36:37 10° 334° (NNW) 2,515 6.6 -17.0°
Maximum altitude 18:42:25 84° 63° (ENE) 869 3.7 -18.0°
Enters shadow 18:46:58 17° 152° (SSE) 2,040 5.3 -18.8°
